EW7347 Weather Reports


Display with metric or nautical units.
time (UTC)temp
F
wind
direction
speed
MPH
gust
MPH
rain 1hr
in
rain 24hr
in
rain mn
in
humidity
%
barometer
mb
20260507122931 64 275 0.0 0.0 0.00 0.00 0.00 43 1014.2
20260507122433 64 228 0.0 1.0 0.00 0.00 0.00 43 1014.3
20260507121914 63 198 0.0 0.0 0.00 0.00 0.00 46 1014.3
20260507121407 63 138 0.0 0.0 0.00 0.00 0.00 45 1014.3
20260507120910 63 242 0.0 0.0 0.00 0.00 0.00 45 1014.3
20260507120352 63 262 0.0 0.0 0.00 0.00 0.00 48 1014.3
20260507115846 63 180 0.0 5.0 0.00 0.00 0.00 49 1014.4
20260507114737 63 104 0.0 0.0 0.00 0.00 0.00 48 1014.4
20260507114245 63 126 0.0 0.0 0.00 0.00 0.00 48 1014.5
20260507113052 63 182 0.0 3.0 0.00 0.00 0.00 48 1014.6
20260507111934 61 195 0.0 0.0 0.00 0.00 0.00 51 1014.5
20260507110802 61 167 0.0 1.0 0.00 0.00 0.00 54 1014.7
20260507110251 61 197 0.0 0.0 0.00 0.00 0.00 55 1014.7
20260507105737 60 259 0.0 1.0 0.00 0.00 0.00 57 1014.7
20260507105234 59 78 0.0 0.0 0.00 0.00 0.00 54 1014.7
20260507104720 60 169 0.0 0.0 0.00 0.00 0.00 52 1014.7
20260507104214 61 178 0.0 0.0 0.00 0.00 0.00 54 1014.7
20260507102435 60 252 0.0 0.0 0.00 0.00 0.00 54 1014.8
20260507101930 59 126 0.0 0.0 0.00 0.00 0.00 59 1014.8
20260507101416 59 198 0.0 0.0 0.00 0.00 0.00 60 1014.9
20260507100915 59 207 0.0 0.0 0.00 0.00 0.00 61 1014.9
20260507100417 59 205 0.0 2.0 0.00 0.00 0.00 59 1014.9
20260507095909 59 244 0.0 0.0 0.00 0.00 0.00 59 1014.8
20260507095409 59 175 0.0 0.0 0.00 0.00 0.00 60 1014.8
20260507094900 58 177 0.0 0.0 0.00 0.00 0.00 58 1014.9
20260507094346 59 187 0.0 0.0 0.00 0.00 0.00 61 1014.9
20260507093856 58 138 0.0 1.0 0.00 0.00 0.00 60 1014.9
20260507092738 58 209 0.0 0.0 0.00 0.00 0.00 64 1014.9
20260507092226 57 96 0.0 0.0 0.00 0.00 0.00 66 1014.9
20260507091726 57 232 0.0 0.0 0.00 0.00 0.00 67 1014.9
20260507091216 56 54 0.0 0.0 0.00 0.00 0.00 69 1015.0
20260507090708 56 247 0.0 0.0 0.00 0.00 0.00 68 1014.9
20260507085546 54 244 0.0 0.0 0.00 0.00 0.00 72 1015.1
20260507085035 54 198 0.0 0.0 0.00 0.00 0.00 74 1015.1
20260507084516 53 189 0.0 1.0 0.00 0.00 0.00 75 1015.1
20260507084017 52 192 0.0 0.0 0.00 0.00 0.00 76 1015.2
20260507083509 52 263 0.0 0.0 0.00 0.00 0.00 76 1015.2
20260507082956 52 261 0.0 0.0 0.00 0.00 0.00 76 1015.2
20260507082449 51 331 0.0 0.0 0.00 0.00 0.00 76 1015.3
20260507081956 51 290 0.0 0.0 0.00 0.00 0.00 77 1015.2
20260507081441 51 136 0.0 0.0 0.00 0.00 0.00 79 1015.2
20260507080931 50 229 0.0 0.0 0.00 0.00 0.00 80 1015.3
20260507080429 50 259 0.0 0.0 0.00 0.00 0.00 80 1015.2
20260507075937 49 229 0.0 0.0 0.00 0.00 0.00 81 1015.2
20260507075442 49 202 0.0 0.0 0.00 0.00 0.00 82 1015.2
20260507074925 49 254 0.0 1.0 0.00 0.00 0.00 82 1015.2
20260507074412 49 184 0.0 0.0 0.00 0.00 0.00 83 1015.2
20260507073859 48 183 0.0 0.0 0.00 0.00 0.00 83 1015.2
20260507073347 48 183 0.0 0.0 0.00 0.00 0.00 83 1015.1
20260507072228 48 190 0.0 0.0 0.00 0.00 0.00 84 1015.1
20260507071732 48 190 0.0 0.0 0.00 0.00 0.00 84 1015.2
20260507070602 48 146 0.0 0.0 0.00 0.00 0.00 83 1015.0
20260507065447 48 182 0.0 3.0 0.00 0.00 0.00 83 1015.0
20260507064951 48 210 0.0 0.0 0.00 0.00 0.00 83 1015.0
20260507064445 48 69 0.0 0.0 0.00 0.00 0.00 83 1015.0
20260507063929 48 177 0.0 0.0 0.00 0.00 0.00 83 1014.8
20260507063424 48 130 0.0 1.0 0.00 0.00 0.00 83 1014.7
20260507062924 47 153 0.0 0.0 0.00 0.00 0.00 83 1014.7
20260507061811 47 136 0.0 0.0 0.00 0.00 0.00 84 1014.6
20260507061316 46 117 0.0 0.0 0.00 0.00 0.00 84 1014.6
20260507060802 46 9 0.0 0.0 0.00 0.00 0.00 85 1014.6
20260507060243 46 138 0.0 0.0 0.00 0.00 0.00 85 1014.6
20260507055744 46 140 0.0 0.0 0.00 0.00 0.00 85 1014.6
20260507055236 46 142 0.0 0.0 0.00 0.00 0.00 85 1014.5
20260507054101 46 142 0.0 0.0 0.00 0.00 0.00 85 1014.5
20260507052923 46 179 0.0 0.0 0.00 0.00 0.00 85 1014.6
20260507052410 46 189 0.0 0.0 0.00 0.00 0.00 86 1014.6
20260507051920 45 191 0.0 0.0 0.00 0.00 0.00 86 1014.6
20260507051412 45 120 0.0 0.0 0.00 0.00 0.00 86 1014.6
20260507050907 45 120 0.0 0.0 0.00 0.00 0.00 86 1014.6
20260507050410 45 120 0.0 0.0 0.00 0.00 0.00 87 1014.6
20260507045908 45 120 0.0 0.0 0.00 0.00 0.00 86 1014.6
20260507045359 45 120 0.0 0.0 0.00 0.00 0.00 86 1014.6
20260507044854 45 120 0.0 0.0 0.00 0.00 0.00 86 1014.5
20260507043744 45 120 0.0 0.0 0.00 0.00 0.00 85 1014.4
20260507043243 45 120 0.0 0.0 0.00 0.00 0.00 85 1014.3
20260507042748 45 124 0.0 0.0 0.00 0.00 0.00 85 1014.3
20260507042231 45 153 0.0 0.0 0.00 0.00 0.00 84 1014.4
20260507041712 45 186 0.0 0.0 0.00 0.00 0.00 84 1014.4
20260507041210 45 186 0.0 0.0 0.00 0.00 0.00 85 1014.4
20260507040704 45 186 0.0 0.0 0.00 0.00 0.00 84 1014.4
20260507035556 45 117 0.0 0.0 0.00 0.00 0.00 85 1014.4
20260507035103 45 173 0.0 0.0 0.00 0.00 0.00 85 1014.4
20260507034548 45 173 0.0 0.0 0.00 0.00 0.00 84 1014.4
20260507033431 45 178 0.0 0.0 0.00 0.00 0.00 85 1014.4
20260507032915 45 179 0.0 0.0 0.00 0.00 0.00 85 1014.4
20260507032415 45 178 0.0 0.0 0.00 0.00 0.00 85 1014.4
20260507031234 45 174 0.0 0.0 0.00 0.00 0.00 85 1014.4
20260507030716 45 173 0.0 0.0 0.00 0.00 0.00 85 1014.5
20260507030217 45 173 0.0 0.0 0.00 0.00 0.00 85 1014.5
20260507025721 45 190 0.0 0.0 0.00 0.00 0.00 85 1014.4
20260507025230 45 189 0.0 0.0 0.00 0.00 0.00 85 1014.5
20260507024112 45 189 0.0 0.0 0.00 0.00 0.00 85 1014.5
20260507022943 45 169 0.0 0.0 0.00 0.00 0.00 85 1014.5
20260507022430 45 175 0.0 0.0 0.00 0.00 0.00 85 1014.5
20260507021928 45 173 0.0 0.0 0.00 0.00 0.00 85 1014.5
20260507021411 45 173 0.0 0.0 0.00 0.00 0.00 85 1014.5
20260507020919 45 175 0.0 0.0 0.00 0.00 0.00 84 1014.5
20260507020407 45 153 0.0 0.0 0.00 0.00 0.00 85 1014.4
20260507015917 45 153 0.0 0.0 0.00 0.00 0.00 85 1014.4
20260507014730 45 153 0.0 0.0 0.00 0.00 0.00 85 1014.4
20260507014240 45 152 0.0 0.0 0.00 0.00 0.00 85 1014.5
20260507013748 45 153 0.0 0.0 0.00 0.00 0.00 85 1014.5
20260507012640 45 145 0.0 0.0 0.00 0.00 0.00 85 1014.4
20260507011532 45 145 0.0 0.0 0.00 0.00 0.00 85 1014.6
20260507011012 45 146 0.0 0.0 0.00 0.00 0.00 85 1014.5
20260507010518 45 134 0.0 0.0 0.00 0.00 0.00 86 1014.6
20260507010027 45 134 0.0 0.0 0.00 0.00 0.00 86 1014.6
20260507005513 45 134 0.0 0.0 0.00 0.00 0.00 86 1014.7
20260507004954 45 153 0.0 0.0 0.00 0.00 0.00 86 1014.6
20260507004459 45 155 0.0 0.0 0.00 0.00 0.00 86 1014.6
20260507003940 45 155 0.0 0.0 0.00 0.00 0.00 86 1014.6
20260507002206 45 155 0.0 0.0 0.00 0.00 0.00 86 1014.7
20260507001707 45 155 0.0 0.0 0.00 0.00 0.00 86 1014.8
20260507001210 45 155 0.0 0.0 0.00 0.00 0.00 86 1014.8
20260507000050 45 17 0.0 0.0 0.00 0.00 0.00 86 1014.8
20260506235600 45 44 0.0 0.0 0.00 0.00 0.00 86 1014.8
20260506235100 45 312 0.0 0.0 0.00 0.00 0.00 86 1014.8
20260506234606 45 180 0.0 0.0 0.00 0.00 0.00 86 1014.7
20260506234109 45 169 0.0 0.0 0.00 0.00 0.00 86 1014.7
20260506233001 45 173 0.0 0.0 0.00 0.00 0.00 86 1014.6
20260506232504 45 173 0.0 0.0 0.00 0.00 0.00 86 1014.6
20260506231954 45 275 0.0 0.0 0.00 0.00 0.00 86 1014.7
20260506225557 44 311 0.0 0.0 0.00 0.00 0.00 87 1014.7
20260506224404 44 311 0.0 0.0 0.00 0.00 0.00 86 1014.7
20260506223230 44 311 0.0 0.0 0.00 0.00 0.00 86 1014.7
20260506222737 44 311 0.0 0.0 0.00 0.00 0.00 86 1014.6
20260506222246 44 311 0.0 0.0 0.00 0.00 0.00 86 1014.5
20260506221743 44 304 0.0 0.0 0.00 0.00 0.00 85 1014.5
20260506221245 44 54 0.0 0.0 0.00 0.00 0.00 85 1014.5
20260506220740 44 53 0.0 0.0 0.00 0.00 0.00 85 1014.4
20260506220250 44 30 0.0 0.0 0.00 0.00 0.00 85 1014.4
20260506215738 44 76 0.0 0.0 0.00 0.00 0.00 85 1014.4
20260506215243 44 67 0.0 0.0 0.00 0.00 0.00 84 1014.4
20260506214727 45 101 0.0 0.0 0.00 0.00 0.00 84 1014.2
20260506214220 45 169 0.0 0.0 0.00 0.00 0.00 84 1014.3
20260506213712 45 254 0.0 0.0 0.00 0.00 0.00 83 1014.3
20260506213211 45 255 0.0 0.0 0.00 0.00 0.00 83 1014.2
20260506212700 45 209 0.0 1.0 0.00 0.00 0.00 83 1014.1
20260506212151 45 106 0.0 1.0 0.00 0.00 0.00 83 1014.2
20260506211633 46 63 0.0 0.0 0.00 0.00 0.00 82 1014.2
20260506211129 46 192 0.0 0.0 0.00 0.00 0.00 82 1014.3
20260506210624 46 264 0.0 2.0 0.00 0.00 0.00 82 1014.2
20260506210132 46 50 0.0 1.0 0.00 0.00 0.00 81 1014.1
20260506205640 46 180 0.0 1.0 0.00 0.00 0.00 81 1014.1
20260506205145 46 191 0.0 0.0 0.00 0.00 0.00 81 1014.1
20260506204634 46 349 0.0 0.0 0.00 0.00 0.00 81 1014.1
20260506202907 47 20 0.0 2.0 0.00 0.00 0.00 81 1014.0
20260506202349 47 333 0.0 0.0 0.00 0.00 0.00 80 1014.0
20260506201831 47 317 0.0 0.0 0.00 0.00 0.00 81 1013.9
20260506201341 47 60 0.0 0.0 0.00 0.00 0.00 81 1014.0
20260506200842 47 107 0.0 0.0 0.00 0.00 0.00 81 1013.9
20260506200324 47 62 0.0 0.0 0.00 0.00 0.00 81 1013.9
20260506195811 47 73 0.0 0.0 0.00 0.00 0.00 81 1013.9
20260506195256 47 350 0.0 0.0 0.00 0.00 0.00 80 1013.8
20260506194748 47 281 0.0 0.0 0.00 0.00 0.00 80 1013.7
20260506193009 47 82 0.0 1.0 0.00 0.00 0.00 79 1013.6
20260506192503 47 148 0.0 0.0 0.00 0.00 0.00 78 1013.6
20260506190729 48 137 0.0 0.0 0.00 0.00 0.00 76 1013.6
20260506190216 48 148 0.0 2.0 0.00 0.00 0.00 75 1013.6
20260506185704 49 97 0.0 2.0 0.00 0.00 0.00 74 1013.6
20260506185203 49 71 0.0 0.0 0.00 0.00 0.00 73 1013.5
20260506184658 49 0 0.0 0.0 0.00 0.00 0.00 73 1013.5
20260506184139 50 71 0.0 1.0 0.00 0.00 0.00 72 1013.5
20260506183642 50 271 0.0 0.0 0.00 0.00 0.00 72 1013.6
20260506183133 50 75 0.0 0.0 0.00 0.00 0.00 71 1013.4
20260506182636 51 79 0.0 0.0 0.00 0.00 0.00 72 1013.4
20260506182124 51 347 0.0 0.0 0.00 0.00 0.00 72 1013.4
20260506181627 51 331 0.0 0.0 0.00 0.00 0.00 72 1013.4
20260506181128 51 73 0.0 0.0 0.00 0.00 0.00 72 1013.4
20260506180622 51 134 0.0 0.0 0.00 0.00 0.00 71 1013.3
20260506180119 51 81 0.0 3.0 0.00 0.00 0.00 70 1013.3
20260506174345 52 59 0.0 3.0 0.00 0.00 0.00 69 1013.1
20260506173827 52 350 0.0 4.0 0.00 0.00 0.00 69 1013.1
20260506173323 52 311 0.0 4.0 0.00 0.00 0.00 67 1013.1
20260506172827 52 321 0.0 4.0 0.00 0.00 0.00 66 1012.9
20260506172321 53 297 0.0 1.0 0.00 0.00 0.00 66 1013.0
20260506171826 53 318 0.0 4.0 0.00 0.00 0.00 66 1013.0
20260506171325 53 109 0.0 4.0 0.00 0.00 0.00 66 1012.9
20260506170207 53 205 0.0 2.0 0.00 0.00 0.00 66 1012.9
20260506165020 53 283 0.0 4.0 0.00 0.00 0.00 66 1012.8
20260506164514 53 132 0.0 3.0 0.00 0.00 0.00 65 1012.8
20260506164008 53 132 0.0 3.0 0.00 0.00 0.00 63 1012.9
20260506163459 53 262 0.0 1.0 0.00 0.00 0.00 63 1012.7
20260506163001 53 355 0.0 0.0 0.00 0.00 0.00 63 1012.7
20260506162502 53 252 0.0 5.0 0.00 0.00 0.00 64 1012.7
20260506161948 53 265 0.0 5.0 0.00 0.00 0.00 63 1012.7
20260506160825 54 278 0.0 5.0 0.00 0.00 0.00 62 1012.7
20260506160334 54 182 0.0 3.0 0.00 0.00 0.00 61 1012.6
20260506155831 54 284 0.0 2.0 0.00 0.00 0.00 60 1012.7
20260506155317 54 355 0.0 2.0 0.00 0.00 0.00 58 1012.6
20260506154147 55 13 0.0 0.0 0.00 0.00 0.00 59 1012.6
20260506153656 55 281 0.0 2.0 0.00 0.00 0.00 59 1012.6
20260506153138 55 88 0.0 0.0 0.00 0.00 0.00 58 1012.6
20260506152640 55 350 0.0 2.0 0.00 0.00 0.00 56 1012.6
20260506152137 55 252 0.0 0.0 0.00 0.00 0.00 53 1012.6
20260506151643 55 346 0.0 3.0 0.00 0.00 0.00 55 1012.7
20260506151149 56 92 0.0 0.0 0.00 0.00 0.00 54 1012.6
20260506150657 56 53 0.0 0.0 0.00 0.00 0.00 52 1012.7
20260506145539 57 287 0.0 0.0 0.00 0.00 0.00 53 1012.6
20260506145042 57 297 0.0 0.0 0.00 0.00 0.00 53 1012.6
20260506144529 57 15 0.0 1.0 0.00 0.00 0.00 52 1012.6
20260506143357 57 303 0.0 0.0 0.00 0.00 0.00 49 1012.5
20260506142905 57 310 0.0 0.0 0.00 0.00 0.00 50 1012.6
20260506142407 57 318 0.0 0.0 0.00 0.00 0.00 49 1012.5
20260506141905 57 5 0.0 0.0 0.00 0.00 0.00 51 1012.5
20260506141349 56 263 0.0 0.0 0.00 0.00 0.00 53 1012.6
20260506140859 56 270 0.0 0.0 0.00 0.00 0.00 52 1012.7
20260506140340 55 66 0.0 0.0 0.00 0.00 0.00 54 1012.7
20260506135823 55 47 0.0 0.0 0.00 0.00 0.00 53 1012.7
20260506135311 55 84 0.0 0.0 0.00 0.00 0.00 55 1012.7
20260506134146 54 347 0.0 0.0 0.00 0.00 0.00 55 1012.9
20260506132414 55 187 0.0 2.0 0.00 0.00 0.00 55 1012.9
20260506131235 56 248 0.0 6.0 0.00 0.00 0.00 54 1012.8
20260506130741 57 280 0.0 6.0 0.00 0.00 0.00 54 1012.8
20260506130224 57 309 0.0 0.0 0.00 0.00 0.00 51 1012.7
20260506125715 56 31 0.0 0.0 0.00 0.00 0.00 51 1012.7
20260506125218 55 318 0.0 6.0 0.00 0.00 0.00 49 1012.8
20260506123442 56 158 0.0 6.0 0.00 0.00 0.00 53 1012.7